FENGYUN 1C DEB

Satellite information

Favourite Embed

Satellite Type and Status

DEBRISIN ORBIT

Key statistics

Satellite FENGYUN 1C DEB at a glance.

Uptime

9714

Days in orbit

Revolutions

≈ 14.3

Per day

Orbit

SSO

Sun Synchronous Orbit

Inclination

99.1

Latest

Satellite identification and parameters

Extended collection of information and parameters for FENGYUN 1C DEB.

Object identification

Identified? True

Debris? True

Object name: FENGYUN 1C DEB

International designator: 1999-025AWJ

Object number (NORAD): 30848

Object ID (CCSDS): 30848

Country: PEOPLES REPUBLIC OF CHINA (PRC)

Current information (Y/N): Y

RCS size: SMALL

Orbital parameters

Period: 100.386 minutes

Inclination: 99.0599 deg

SMA: 7154.98 km

Apoapsis: 808.258 km

Periapsis: 745.432 km

RAAN: 179.7213 deg

Eccentricy: 0.00439038

Argument of periapsis: 340.8768 deg

Mean anomaly: 19.0765 deg

Mean motion: 14.34465563 rev/day

Mean motion (dot): 0.00005054 rev/day2

B* drag term: 0.0017902216 1/REarth

Two-line elements (TLE)

Creation date: Dec. 11, 2025, 10:54 a.m.

Reference frame: TEME

Reference center: EARTH

Epoch: Dec. 10, 2025, 11:16 p.m. UTC

TLE line 0: 0 FENGYUN 1C DEB

TLE line 1: 1 30848U 99025AWJ 25344.96986136 .00005054 00000-0 17902-2 0 9999

TLE line 2: 2 30848 99.0599 179.7213 0043904 340.8768 19.0765 14.34465563972818

Live tracking on map

Real-time ground track for satellite FENGYUN 1C DEB.

In-orbit conjunctions

A list of the most updated potential collisions computed for object FENGYUN 1C DEB.

Target Orbit TCA Probability of collision Miss distance Type
COSMOS 1570 LEO 2025-11-18 16:53:40 0.0001240497 932.0 (m) PAYLOAD
FENGYUN 1C DEB SSO 2025-08-27 07:12:39 0.0001079994 91.0 (m) DEBRIS
IRIDIUM 24 LEO 2025-07-05 18:54:12 0.0001014157 902.0 (m) PAYLOAD
MICRO LABSAT SSO 2025-01-31 16:02:03 0.000165614 784.0 (m) PAYLOAD
FENGYUN 1C DEB SSO 2024-11-14 11:17:27 0.0003259293 162.0 (m) DEBRIS

Associated space launch

Chinese polar orbiting meteorological satellite

FENGYUN 1C DEB was lifted into orbit during the mission ‘Long March 4B | Feng Yun 1C’, on board a Long March 4B space rocket.

The launch took place on May 10, 1999, 1:33 a.m. from Launch Complex 7.

For more information about the launch, click the button.

Launch to space Long March 4B | Feng Yun 1C
Long March 4B | Feng Yun 1C

Agency: N/A

Status: Launch Successful

Launch date: May 10, 1999, 1:33 a.m. UTC

Rocket: Long March 4B

Launch pad: Launch Complex 7

Location: Taiyuan Satellite Launch Center, People's Republic of China

...

Latest news about this satellite

There are no fresh news available about this satellite. Check back as we update our databases every day.


Newsletter sign-up

Weekly statistics, charts and insights to help you stay on top of the space industry.